Location: Azul
(36.7830°S, 59.8500°W)
Time: 00:12:03
(UTC-03:00)

NOAA 15 - Pass Details

Date: 26 October 2021
Orbit: 797 x 813 km, 98.7° (Epoch: 30 November)

Event Time Altitude Azimuth Distance (km) Brightness Sun altitude
Rises 20:32:01 0° 164° (SSE) 3,341 8.0 -13.0°
Reaches altitude 10° 20:34:23 10° 162° (SSE) 2,405 7.2 -13.4°
Maximum altitude 20:39:41 69° 78° (ENE) 868 4.5 -14.3°
Drops below altitude 10° 20:44:56 10° 354° (N) 2,384 6.8 -15.2°
Sets 20:47:16 0° 352° (N) 3,309 7.6 -15.6°
